Regional Weather Roundup
Issued by NWS

Home | Current Version | Previous Version | Text Only | Print | Product List | Glossary On
Versions: 1 2 3 4 5 6 7 8 9 10 11 12 13 14 15 16 17 18 19 20 21 22 23 24 25 26 27 28 29 30 31 32 33 34 35 36 37 38 39 40 41 42 43 44 45 46 47 48 49 50
000
ASUS44 KFWD 020710
RWRTX
NORTH TEXAS HOURLY WEATHER ROUNDUP
NATIONAL WEATHER SERVICE FORT WORTH TX
200 AM CDT TUE SEP 02 2014

NOTE: "FAIR" INDICATES FEW OR NO CLOUDS BELOW 12,000 FEET WITH NO
SIGNIFICANT WEATHER AND/OR OBSTRUCTIONS TO VISIBILITY.

TXZ118-119-020800-
DALLAS/FORT WORTH METROPLEX

CITY           SKY/WX    TMP DP  RH WIND       PRES   REMARKS
DFW AIRPORT    CLEAR     85  70  60 S17G24    29.88F
DALLAS LOVE    CLEAR     84  71  65 S16       29.89F
FTW MEACHAM    CLEAR     85  68  56 S14       29.88S
DAL-EXECUTIVE  CLEAR     84  71  65 S12G18    29.90S
FTW-ALLIANCE   CLEAR     83  67  58 S15G22    29.87S
FTW-NAS-JRB    CLEAR     87  66  49 S16       29.92S
FTW-SPINKS     CLEAR     82  68  61 S10       29.91S
ARLINGTON      CLEAR     84  69  60 S12       29.89S
GRAND PRAIRIE  CLEAR     84  68  59 SE12G20   29.91S
ADDISON        CLEAR     85  69  60 S14G20    29.91S
MESQUITE       CLEAR     81  71  71 SE9       29.91S
LANCASTER      CLEAR     81  70  70 S10G16    29.92S
$$

TXZ091>094-102>105-117-120-121-131>134-020800-
NORTH CENTRAL TEXAS

CITY           SKY/WX    TMP DP  RH WIND       PRES   REMARKS
SHRMAN/DENISON CLEAR     82  69  63 S16G22    29.88F
GAINESVILLE    CLEAR     81  68  65 SE13      29.89F
BOWIE          CLEAR     82  68  61 S12       29.87F
BRIDGEPORT     CLEAR     83  65  53 S9G16     29.89S
DECATUR        CLEAR     83  66  56 S15G22    29.89S
DENTON         CLEAR     84  68  58 S16G25    29.88S
MCKINNEY       CLEAR     82  72  71 S15       29.89F
GREENVILLE     CLEAR     81  70  69 S10G17    29.91F
ROCKWALL       CLEAR     81  72  75 S12       29.89F
TERRELL        CLEAR     83  74  74 S15       29.92S
WAXAHACHIE     CLEAR     81  68  65 S9        29.92F
CLEBURNE       CLEAR     82  72  69 S13G21    29.92S
GRANBURY       CLEAR     86  68  55 SE15      29.90S
$$

TXZ083>090-098>101-113>116-127>130-139>142-154-155-020800-
WESTERN NORTH TEXAS

CITY           SKY/WX    TMP DP  RH WIND       PRES   REMARKS
WICHITA FALLS  CLEAR     84  67  56 S17       29.81F
WF-KICKAPOO    CLEAR     85  65  51 S14G22    29.83S
VERNON         CLEAR     86  64  46 S12       29.83S
ABILENE        CLEAR     84  63  49 S17       29.89R
ABILENE-DYESS  CLEAR     84  64  50 S17G25    29.88R
BRECKENRIDGE   CLEAR     85  66  53 S13G20    29.87S
GRAHAM         CLEAR     84  68  58 SE8G18    29.85S
MINERAL WELLS  CLEAR     84  68  58 S13       29.88R
STEPHENVILLE   CLEAR     82  68  62 S9G16     29.95R
COMANCHE         N/A     81  67  62 S12G17    29.92R
BROWNWOOD      PTCLDY    82  68  61 S13       29.92R
COLEMAN        CLEAR     81  64  56 S10       29.92R
BRADY          CLEAR     81  70  69 SE10      29.94S
$$

TXZ143>147-156>162-174-175-020800-
CENTRAL TEXAS

CITY           SKY/WX    TMP DP  RH WIND       PRES   REMARKS
WACO           CLEAR     82  71  69 S14       29.92R
WACO-MCGREGOR  CLEAR     81  66  61 S16       29.93S
HILLSBORO      CLEAR     82  68  62 S14       29.92S
CORSICANA      CLEAR     81  73  76 S10       29.94S
MEXIA          CLEAR     78  73  84 S5        29.93S
HEARNE           N/A     78  73  85 SE3       29.94S
CAMERON        CLEAR     80  73  81 S7        29.93S
TEMPLE         CLEAR     81  66  61 S15       29.93S
KILLEEN        CLEAR     81  72  74 SE12      29.93S
KILLEEN-SKYLRK CLEAR     81  66  61 SE14G20   29.93F
FORT HOOD      CLEAR     82  71  69 SE13      29.93S
GATESVILLE     CLEAR     81  70  69 SE7       29.95S
HAMILTON       CLEAR     81  68  65 S14G23    29.94S
LAMPASAS       CLEAR     81  72  74 S8        29.94S
$$

TXZ095>097-106>112-122>126-135>138-148>153-164>167-020800-
EAST TEXAS

CITY           SKY/WX    TMP DP  RH WIND       PRES   REMARKS
PARIS          CLEAR     75  66  73 S6        29.92F
SULPHUR SPRNGS CLEAR     82  73  75 S9G17     29.94S
MOUNT PLEASANT CLEAR     79  73  82 S6        29.94F
GILMER         CLEAR     81  75  83 S6        29.96F
MINEOLA        CLEAR     81  75  83 S6        29.94F
TYLER          CLEAR     80  74  81 S10       29.95S
LONGVIEW       CLEAR     79  74  84 S8        29.95S
MARSHALL       CLEAR     79  75  90 S3        29.98S
ATHENS         CLEAR     79  72  78 S7        29.94S
PALESTINE      CLEAR     78  74  87 SE5       29.96S
JACKSONVILLE   CLEAR     78  75  91 S8        29.99S
HENDERSON      CLEAR     78  75  92 CALM      29.98R
NACOGDOCHES    CLOUDY    79  75  89 SE5       29.97S
LUFKIN         MOCLDY    79  75  87 E3        29.96R
$$

SUPPLEMENTAL OBSERVATIONS (CENTRAL)

CITY           SKY/WX    TMP DP  RH WIND       PRES   REMARKS
CADDO GRASSLND   N/A     81  70  69 S12         N/A
PAT MAYSE LAKE   N/A     79  72  78 SE13        N/A
PALESTINE        N/A     79  73  83 S5          N/A
MCGREGOR         N/A     81  70  69 S16G22      N/A
TEMPLE           N/A     79  70  73 S10         N/A
$$

SUPPLEMENTAL OBSERVATIONS (WEST)

CITY           SKY/WX    TMP DP  RH WIND       PRES   REMARKS
MILLERS CREEK    N/A     82  59  44 S10         N/A
POSSUM KINGDOM   N/A     82  66  57 S10G20      N/A
LBJ GRASSLAND    N/A     82  64  54 S14         N/A
GRANBURY         N/A     84  66  54 S16G22      N/A
HAMBY            N/A     84  63  48 S18         N/A
COLORADO BEND    N/A     81  68  65 S10         N/A
$$

SUPPLEMENTAL OBSERVATIONS (EAST)

CITY           SKY/WX    TMP DP  RH WIND       PRES   REMARKS
CLARKSVILLE      N/A     79  72  78 S7          N/A
TEXARKANA        N/A     75  72  88 SE2         N/A
LINDEN           N/A     79  75  89 S1          N/A
GILMER           N/A     79  73  83 S5          N/A
HENDERSON        N/A     79  73  83 S3          N/A
LUFKIN           N/A     77  73  88 MISG        N/A
N SABINE NF      N/A     75  72  88 MISG        N/A
S SABINE NF      N/A     77  73  88 E1          N/A
$$

SUPPLEMENTAL OBSERVATIONS ARE A COLLECTION OF AUTOMATED INSTRUMENTS
THAT ARE MAINTAINED BY A VARIETY OF FEDERAL AND STATE AGENCIES.
CERTAIN ELEMENTS...SUCH AS HUMIDITY VALUES AND SUSTAINED WIND
SPEEDS...MAY BE APPROXIMATED.




USA.gov is the U.S. government's official web portal to all federal, state and local government web resources and services.